www.pogodaiklimat.ru

Погода и климат >> Архив погоды >> Оман >> Al Mudhaibi


ПОГОДА в Al Mudhaibi

  • Прогноз погоды в Al Mudhaibi
  • Монитор погоды в Al Mudhaibi
  • Климат города

АРХИВ ПОГОДЫ в Al Mudhaibi

Время (UTC), дата Ветер
(напр.,м/с)
 
Видим.   Явления Облачность Т
(С)
Тd
(С)
f
(%)
Тe
(С)
Тes
(С)
Комфортность P
(гПа)
Po
(гПа)
Тmin
(С)
Tmax
(С)
R
(мм)
R24
(мм)
S
(см)
03 15.10 СВ 2 н/о н/о +25.0 +8.1 34 +25 +25 комфорт 1008.6 966.9
06 15.10 ЮЗ 2 н/о н/о +34.5 +6.0 17 +32 +32 жарко 1008.4 968.0 +23.9
09 15.10 ЮЗ 4 н/о н/о +39.2 +1.0 9 +35 +35 очень
жарко
1004.9 965.2
12 15.10 ЮЗ 3 н/о н/о +38.9 +0.9 9 +35 +35 очень
жарко
1003.5 963.8
15 15.10 Ю 4 н/о н/о +35.7 -0.7 10 +32 +32 жарко 1004.8 964.7
18 15.10 В 4 н/о н/о +30.2 +5.5 21 +29 +29 жарко 1007.7 966.8 +39.8
21 15.10 В 5 н/о н/о +27.9 +8.0 29 +28 +28 жарко 1007.2 966.0
00 16.10 В 3 н/о н/о +25.1 +9.0 36 +26 +26 жарко 1007.7 966.2
03 16.10 В 2 н/о н/о +25.4 +8.8 35 +26 +26 жарко 1009.1 967.5
06 16.10 СВ 2 н/о н/о +33.8 +7.5 20 +32 +32 жарко 1008.9 968.4 +24.3
09 16.10 СЗ 3 н/о н/о +37.9 +0.9 10 +34 +34 очень
жарко
1005.3 965.4
12 16.10 Ю 2 н/о н/о +39.1 +1.3 10 +36 +36 очень
жарко
1003.3 963.6
15 16.10 Ю 3 н/о н/о +36.1 +3.5 13 +33 +33 жарко 1004.4 964.4
18 16.10 В 5 н/о н/о +31.2 +10.6 28 +31 +31 жарко 1007.0 966.2 +40.1
21 16.10 В 4 н/о н/о +27.4 +11.0 36 +28 +28 жарко 1006.8 965.6
00 17.10 В 3 н/о н/о +25.1 +8.5 35 +26 +26 жарко 1007.2 965.6
03 17.10 В 3 н/о н/о +25.2 +8.5 35 +26 +26 жарко 1008.9 967.3
06 17.10 В 2 н/о н/о +32.9 +8.9 23 +32 +32 жарко 1008.8 968.2 +23.9
09 17.10 СЗ 3 н/о н/о +37.6 +3.8 12 +34 +34 очень
жарко
1004.9 965.0
12 17.10 ЮЗ 3 н/о н/о +39.1 +2.4 10 +36 +36 очень
жарко
1003.1 963.4
15 17.10 Ю 4 н/о н/о +35.3 +2.0 12 +32 +32 жарко 1004.6 964.4
18 17.10 В 6 н/о н/о +30.2 +6.0 22 +32 +32 жарко 1007.4 966.6 +39.7
21 17.10 В 3 н/о н/о +27.3 +9.9 34 +28 +28 жарко 1007.4 966.1
00 18.10 В 3 н/о н/о +24.4 +9.2 38 +25 +25 комфорт 1008.0 966.3
03 18.10 СВ 2 н/о н/о +24.9 +8.5 35 +25 +25 комфорт 1010.1 968.4
06 18.10 В 3 н/о н/о +31.5 +9.8 26 +31 +31 жарко 1010.2 969.3 +23.9
09 18.10 З 2 н/о н/о +36.6 +5.9 15 +34 +34 очень
жарко
1006.7 966.6
12 18.10 С 2 н/о н/о +38.2 +1.9 10 +35 +35 очень
жарко
1004.5 964.7
15 18.10 Ю 4 н/о н/о +35.0 +3.2 14 +32 +32 жарко 1005.7 965.5
18 18.10 В 7 н/о н/о +30.2 +10.3 29 +30 +30 жарко 1008.6 967.7 +39.2
21 18.10 В 3 н/о н/о +27.3 +8.4 30 +27 +27 жарко 1009.1 967.8
00 19.10 СВ 3 н/о н/о +25.5 +6.3 29 +25 +25 комфорт 1009.3 967.7
03 19.10 СВ 2 н/о н/о +25.3 +4.9 27 +25 +25 комфорт 1010.9 969.2
06 19.10 Ю 3 н/о н/о +32.8 +2.9 15 +30 +30 жарко 1011.0 970.2 +24.6
09 19.10 ЮЗ 2 н/о н/о +36.3 +3.2 13 +33 +33 жарко 1007.6 967.4
12 19.10 В 4 н/о н/о +37.1 +1.7 11 +34 +34 очень
жарко
1005.7 965.7
15 19.10 Ю 3 н/о н/о +34.2 +1.8 13 +31 +31 жарко 1007.3 966.8
18 19.10 ЮВ 4 н/о н/о +28.9 +14.0 40 +31 +31 жарко 1010.2 969.1 +38.3
21 19.10 СВ 2 н/о н/о +26.2 +13.4 45 +28 +28 жарко 1010.1 968.6
00 20.10 СЗ 2 н/о н/о +24.3 +12.8 49 +26 +26 жарко 1009.7 968.0
03 20.10 С 2 н/о н/о +24.7 +11.4 43 +26 +26 жарко 1010.7 968.9
06 20.10 З 4 н/о н/о +32.7 +5.3 18 +30 +30 жарко 1010.5 969.8 +23.3
09 20.10 ЮВ 3 н/о н/о +37.6 -0.0 9 +34 +34 очень
жарко
1007.0 967.0
12 20.10 З 4 н/о н/о +37.7 -3.4 7 +34 +34 очень
жарко
1005.5 965.5
15 20.10 ЮЗ 4 н/о н/о +34.3 -4.2 8 +30 +30 жарко 1006.7 966.2
18 20.10 ЮВ 4 н/о н/о +29.2 +3.5 19 +31 +31 жарко 1009.5 968.4 +38.6
21 20.10 В 5 н/о н/о +25.8 +11.9 42 +27 +27 жарко 1009.3 967.8
00 21.10 СЗ 1 н/о н/о +23.9 +13.4 52 +26 +26 жарко 1009.6 967.8
03 21.10 С 2 н/о н/о +23.3 +13.5 54 +27 +27 душно 1010.3 968.4
06 21.10 ЮЗ 2 н/о н/о +31.2 +10.9 29 +31 +31 жарко 1009.9 969.0 +22.7
09 21.10 Ю 3 н/о н/о +36.2 +6.9 17 +34 +34 очень
жарко
1006.1 966.0
12 21.10 З 3 н/о н/о +36.5 +3.6 13 +33 +33 жарко 1004.2 964.2
15 21.10 Ю 3 н/о н/о +33.6 +4.1 16 +31 +31 жарко 1005.2 964.8
18 21.10 ЮВ 4 н/о н/о +29.1 +11.3 33 +30 +30 жарко 1007.5 966.5 +37.5
21 21.10 В 5 н/о н/о +24.9 +16.4 59 +28 +28 жарко 1008.4 966.9
00 22.10 В 2 н/о н/о +22.9 +17.9 73 +28 +28 душно 1008.9 967.1

 

Местоположение метеостанции Al Mudhaibi (Оман): широта 22.51 долгота 58.13 высота над уровнем моря 378 м.

В архиве по умолчанию представлена погода в Al Mudhaibi за последнюю неделю. Архивные данные за месяц целиком и за предыдущие месяцы, начиная с января 2011 года, Вы можете получить, выбрав интересующий диапазон дат из раскрывающегося списка и нажав кнопку "Ввод!".

Внимание! Время в таблицах - всемирное. Для получения местного времени необходимо прибавить поправку, которая в Al Mudhaibi равна 4 ч.

Смотрите также архив погоды в соседних городах и на ближайших метеорологических станциях:

Погода в Ibra (Оман) (45 км)
Погода в Adam (Оман) (64 км)
Погода в Nizwa (Оман) (72 км)
Погода в Bidiya (Оман) (74 км)
Погода в Saiq (Оман) (81 км)
Погода в Samail (Оман) (90 км)
Погода в Bahla (Оман) (100 км)
Погода в Al Amerat (Оман) (116 км)
Погода в Jabal Shams (Оман) (120 км)
Погода в Seeb (Оман) (120 км)

Пояснения к столбцам:

Ветер - указаны скорость ветра в м/с - средняя за 10 мин, порывы в срок и между сроками (в фигурных скобках) и направление, откуда дует ветер: С - северный, СВ - северо-восточный, В - восточный, ЮВ - юго-восточный, Ю - южный, ЮЗ - юго-западный, З - западный, СЗ - северо-западный.
Видимость - горизонтальная дальность видимости в метрах или километрах. При видимости от 1 до 10 км при отсутствии осадков обычно наблюдается дымка, при ухудшении видимости до 1 км и менее - туман. В сухую погоду видимость может ухудшаться дымом, пылью или мглою.
Явления - указаны атмосферные явления, наблюдавшиеся в срок или в последний час перед сроком; фигурными скобками обозначены явления, наблюдавшиеся между сроками (за 1-3 часа до срока); квадратными скобками обозначены град или гололедные отложения с указанием их диаметра в мм.
Облачность - указаны через наклонную черту общая и нижняя облачность в баллах и высота нижней границы облаков в метрах; квадратными скобками обозначены формы облаков: Ci - перистые, Cs - перисто-слоистые, Cc - перисто-кучевые, Ac - высококучевые, As - высокослоистые, Sc - слоисто-кучевые, Ns - слоисто-дождевые, Cu - кучевые, Cb - кучево-дождевые. Подробнее классификацию облаков см. в Атласе облаков (PDF).
T - Температура воздуха - температура, измеренная на высоте 2 м над землей.
Td - Температура точки росы - температура, при понижении до которой содержащийся в воздухе водяной пар достигнет насыщения.
f - Относительная влажность воздуха - влажноcть воздуха, измеренная на высоте 2 м над землей.
Te - Эффективная температура - температура, которую ощущает одетый по сезону человек в тени. Характеристика душности погоды. При расчете учитывается влияние влажности воздуха и скорости ветра на теплоощущения человека.
Tes - Эффективная температура на солнце - температура, которую ощущает человек, с поправкой на солнечный нагрев. Характеристика знойности погоды. Зависит от высоты солнца над горизонтом, облачности и скорости ветра. Ночью, в пасмурную погоду, а также при ветре 12 м/с и более поправка равна нулю.
P - Атмосферное давление - приведенное к уровню моря атмосферное давление.
Po - Атмосферное давление - измеренное на уровне метеостанции атмосферное давление.
Tmin - Минимальная температура - минимум температуры воздуха на высоте 2 м над землей.
Tmax - Максимальная температура - максимум температуры воздуха на высоте 2 м над землей.
R - Количество осадков - Количество выпавших осадков за период времени, мм. При наведении курсора мыши на число - период времени, за который выпало указанное количество осадков.
R24 - Количество осадков - Количество выпавших осадков за 24 часа, мм.
S - Снежный покров - Высота снежного покрова, см. При наведении курсора мыши на число - состояние снежного покрова и степень покрытия местности в баллах.